Location: Unspecified
(0.0000°N, 0.0000°E)
Time: 15:11:14
(UTC+00:00)

Courier 1B - Pass Details

Date: 09 February 2026
Orbit: 962 x 1208 km, 28.3° (Epoch: 16 March)

Event Time Altitude Azimuth Distance (km) Brightness Sun altitude
Rises 19:13:34 0° 243° (WSW) 3,903 12.4 -14.4°
Reaches altitude 10° 19:16:16 10° 245° (WSW) 2,980 11.4 -15.0°
Maximum altitude 19:23:40 76° 329° (NNW) 1,195 7.9 -16.8°
Enters shadow 19:28:48 23° 52° (NE) 2,260 8.9 -18.0°
